GFSGBSN_850_dewp_186.txt.gz
Dewpoint
9 10 10 11 9 8 -1 -5 -1 1 -3 -5 -5 -5 -4 -4 -3 -0 2 2 1 -1 0 5 7 7 6 6 4 4 3 2 0 -1 2 2 2 2 2 -0 -1 -0 -1 -0 1 2 2
7 9 10 10 11 9 8 -2 -5 -1 2 -1 -4 -4 -4 -3 -1 2 3 1 0 1 6 8 7 6 6 5 4 3 3 3 3 4 4 4 3 3 2 2 3 1 3 3 3 3 2
5 7 8 8 9 11 9 8 -3 -4 -1 2 0 -2 -2 -0 2 3 2 1 2 7 8 7 6 6 5 5 4 3 3 2 3 4 5 6 6 4 4 3 3 4 5 2 1 -0 1
5 5 6 7 9 10 11 9 6 -3 -4 -0 3 2 2 3 3 3 2 3 8 8 8 7 6 5 5 4 4 3 2 2 1 0 1 3 4 3 4 2 3 3 3 3 0 0 -3
4 3 5 5 7 9 10 10 9 4 -2 -3 1 3 4 4 3 2 3 8 9 7 7 6 5 4 4 3 1 -0 -1 3 3 1 4 4 4 2 4 4 2 3 4 -0 -1 -1 0
5 5 5 5 5 7 8 9 10 9 1 -2 -2 2 3 3 3 3 8 9 8 6 5 4 2 3 3 0 -3 3 4 6 7 7 7 6 5 4 3 3 1 -4 -7 -2 -1 -4 -1
4 4 5 5 5 4 6 7 9 10 8 0 -1 -0 2 2 3 5 9 7 4 4 4 4 3 2 -2 -0 -3 1 1 6 7 7 5 7 5 4 1 1 -2 -4 -3 -1 -2 -2 0
1 3 4 5 4 4 4 7 8 9 10 4 1 -1 1 2 3 7 9 7 6 4 3 4 3 2 -3 1 1 3 3 3 4 2 3 7 4 -1 0 -0 -0 1 1 1 -0 0 2
0 3 3 4 4 4 5 4 6 8 9 9 4 1 1 3 6 8 9 8 6 5 1 -3 0 1 0 -1 -2 -4 2 0 1 -0 1 2 -2 2 3 4 6 4 4 3 1 -2 -0
-0 -0 3 4 3 4 5 5 4 7 9 10 8 3 1 5 8 8 7 7 6 -1 4 3 -2 -2 -1 -2 -3 -5 -4 -7 -7 -5 -3 -1 -2 -1 2 2 2 3 -2 -1 2 4 2
-1 -0 0 3 3 3 6 4 5 5 8 9 10 5 3 4 7 6 6 6 -1 5 8 4 -3 -2 -0 -6 -3 0 -2 -5 -7 -6 -7 -4 0 0 -0 -3 -4 -1 0 1 2 3 3
-2 -1 -0 0 2 3 4 3 4 4 6 9 9 8 5 6 7 7 6 2 3 5 7 1 -2 1 -0 -4 -2 2 -1 -1 -5 -5 -4 -7 -0 -1 -3 1 2 2 2 2 2 2 5
-2 -1 -1 -0 1 2 2 2 3 5 5 8 9 9 7 6 6 6 3 3 3 7 4 -0 -2 0 -1 -3 -0 1 2 1 0 1 0 -3 -2 -2 -2 0 -1 0 1 2 3 4 3
-3 -1 -0 0 1 1 3 4 2 4 5 7 9 9 8 6 6 5 2 4 5 5 5 -4 -3 -2 -3 -3 -3 1 2 3 2 1 -1 1 2 1 0 -0 1 1 0 1 1 -1 -3
-5 -1 -1 1 2 2 4 4 5 3 5 7 8 8 6 5 5 3 3 7 8 4 3 -2 -3 -2 -2 -4 -3 -2 0 -1 1 2 -0 1 2 -1 -3 -2 -1 0 0 0 3 0 3
-5 -1 0 2 1 2 3 3 4 5 6 7 5 4 3 4 4 2 4 7 4 1 -3 -4 1 -3 -1 -2 -1 -1 2 1 2 2 2 3 5 1 -3 -4 -2 -2 -3 1 4 6 4
-5 -1 -0 3 3 2 3 4 4 5 6 7 4 2 2 3 3 2 5 5 2 2 -0 0 4 4 -0 -1 -3 -1 1 1 -0 -0 -3 -2 -1 1 -3 -6 -6 -3 -4 -2 1 0 2
-3 -1 -0 3 2 4 8 6 4 5 6 6 2 1 2 3 1 1 3 2 1 3 2 3 2 3 3 1 1 1 1 1 -0 -2 -2 0 1 1 -4 -6 -5 -5 -1 5 4 3 3
-2 -1 -0 2 1 5 7 6 5 6 6 4 0 -0 2 2 2 3 1 2 2 2 2 3 3 2 1 3 3 1 1 1 0 -3 -0 -1 1 -1 -1 0 -0 2 3 2 3 4 -2
-3 -1 -0 1 2 0 4 5 5 4 4 3 0 1 -1 -0 0 2 3 3 3 1 2 2 3 1 2 2 -0 2 0 2 0 -1 -1 -3 -1 -2 -4 -3 -6 -3 -4 -1 1 1 1
-3 -2 -1 0 2 1 1 1 1 2 2 1 0 1 -0 2 2 2 1 2 3 3 1 1 3 1 1 3 0 1 -1 1 1 0 -2 -1 1 -1 -2 -6 -7 -6 -5 -5 -4 -3 0
-3 -2 -1 -0 2 1 1 1 1 1 1 -0 -0 0 1 2 1 2 1 3 2 2 2 2 3 1 -1 0 -3 -0 -1 -1 -1 -1 -0 -1 -1 -2 -0 -4 -4 -3 -5 -7 -8 -10 -11
-3 -4 -1 -1 1 1 1 -0 -0 -0 1 -0 -0 0 -0 1 2 2 2 3 2 -0 -0 -2 0 1 1 1 -5 -4 -4 -4 -4 -3 -2 2 -0 0 -2 -6 -7 -4 -8 -9 -12 -14 -14
-3 -4 -2 -1 -0 -0 0 0 0 0 1 -0 0 -0 -0 2 1 1 0 0 1 -1 0 -1 -2 -3 -2 -1 -2 -2 -2 -2 -3 -4 -5 -1 -1 -1 -2 -6 -1 -9 -13 -12 -10 -11 -11
-4 -3 -4 -1 -1 -0 -1 -0 0 0 0 1 0 -0 1 2 1 1 1 1 -1 -2 -2 -2 -3 -3 -3 -4 -2 -2 -4 -5 -3 -2 -2 -3 -2 -1 -1 -3 -8 -13 -14 -13 -9 -9 -11
-3 -5 -3 -4 -2 -1 -0 -1 -1 -0 -0 0 0 -0 -1 0 1 -0 1 -1 -1 -1 -2 -1 -1 -1 -3 -6 -4 -2 -3 -8 -8 -5 -4 -2 -3 -3 -4 -5 -7 -16 -10 -10 -10 -5 -12
-3 -4 -3 -3 -3 -2 -1 -1 -0 -1 -0 -0 -1 -1 -1 -1 -0 -1 -0 -1 -4 -4 -3 -2 -1 -2 -4 -3 -2 -4 -7 -11 -9 -10 -4 -2 -1 -1 -4 -4 -10 -14 -15 -9 -5 -10 -13
-3 -3 -4 -3 -3 -3 -2 -2 -1 -1 -1 -0 -2 -2 -3 -1 -1 -0 -3 -3 -4 -5 -2 -2 -2 -1 -3 -2 -3 -3 -4 -7 -10 -14 -8 -6 -3 -3 -4 -3 -3 -13 -12 -5 -12 -14 -14
-4 -2 -3 -4 -3 -3 -2 -3 -3 -2 -2 -1 -1 -1 -3 -2 -1 -2 -4 -4 -4 -4 -3 -3 -4 -3 -4 -2 -3 -3 -3 -3 -7 -6 -12 -9 -8 -8 -6 -6 -11 -10 -12 -12 -9 -11 -12

GFSGBSN_850_dewp_192.txt.gz
Dewpoint
2 1 2 -1 7 8 9 9 10 11 10 5 -2 -0 -6 -7 -4 -1 1 1 -0 -2 -2 -1 2 -1 -2 5 2 2 4 3 3 2 3 2 1 1 1 1 0 0 -0 -1 -1 -2 -1
1 2 1 4 1 6 8 8 9 10 10 10 6 -1 -0 -6 -6 -3 -1 -0 -1 -2 -2 1 2 -0 4 4 0 5 5 4 3 4 3 3 3 2 2 2 2 1 1 0 0 0 0
2 2 2 4 5 4 6 7 8 8 9 10 10 5 -1 -1 -6 -5 -2 -2 -2 -2 -1 3 2 4 7 3 4 4 5 4 4 3 3 3 3 3 3 2 1 1 2 2 1 0 -1
0 1 2 3 4 4 5 6 6 7 7 8 10 10 3 2 -2 -5 -4 -2 -2 -1 1 3 3 7 6 3 1 3 5 5 4 4 4 3 3 3 3 3 2 3 2 3 -0 -2 -2
1 2 1 2 2 4 5 6 6 6 6 8 9 10 10 1 2 -4 -4 -2 -0 3 4 4 6 7 5 4 4 1 5 5 4 4 4 3 3 3 2 2 2 1 3 2 0 -2 -2
1 1 0 0 0 1 3 4 6 5 6 6 7 8 10 7 2 -1 -3 0 5 6 7 7 7 6 5 5 4 5 4 4 4 3 3 3 2 3 2 2 5 3 2 0 0 -1 -7
-1 -0 -1 -1 -0 -1 -0 3 4 6 4 5 7 7 9 10 4 3 1 7 7 7 6 5 4 2 2 3 1 1 3 2 2 4 5 3 4 4 2 1 0 0 1 1 -2 -4 -6
-1 -1 -1 -0 -0 -1 -2 0 3 5 6 5 6 8 8 9 6 4 0 6 5 3 5 5 5 4 4 4 2 2 4 2 3 6 3 4 5 2 -0 1 0 1 1 1 -1 -4 -5
-2 -1 -0 -1 0 0 -0 1 2 4 5 5 5 7 7 9 9 6 2 3 5 3 4 2 5 3 3 4 1 1 4 4 4 6 4 4 3 2 2 0 -0 -1 0 -0 -1 -3 -2
-2 -2 -1 -1 -1 -0 -1 -2 -1 2 4 6 6 5 7 7 7 7 5 5 5 5 6 2 0 5 4 3 2 1 2 3 3 4 4 4 1 1 2 2 0 2 -2 -0 0 1 3
-2 -3 -2 -1 -1 -3 -3 -3 -2 -0 4 5 5 6 6 6 7 7 6 6 6 4 7 -1 -1 2 4 4 3 3 1 1 2 2 1 3 1 1 1 1 0 1 -1 0 -0 1 2
-3 -3 -2 -2 -3 -3 -3 -5 -2 -3 2 3 4 5 5 6 7 7 6 7 6 7 7 2 4 2 3 5 5 2 2 1 1 2 0 0 -0 0 1 -2 -2 -1 -0 -0 -1 1 5
-3 -4 -4 -4 -5 -4 -3 -4 -2 -2 -2 3 4 5 6 7 7 7 7 6 6 7 4 4 6 3 3 6 6 4 3 3 4 5 5 3 1 -3 -2 -3 -3 -2 -1 4 7 6 6
-3 -3 -5 -5 -3 -4 -3 -3 -3 -2 -2 0 3 4 5 6 7 7 7 6 7 6 5 0 4 3 5 4 5 4 2 4 2 0 3 5 7 1 -4 -3 -1 1 1 6 7 6 4
-2 -2 -3 -3 -4 -4 -2 -2 -2 -1 -1 -0 1 3 4 6 7 7 6 6 6 5 2 1 4 4 5 3 3 4 4 2 2 -0 3 4 3 -2 -3 -4 -3 0 3 1 5 4 5
-3 -3 -4 -5 -5 -4 -3 -2 -2 -1 0 0 0 1 3 4 7 6 6 6 5 3 1 1 7 3 5 4 4 4 3 2 1 -0 -0 1 6 -2 -3 -3 -3 -2 -1 5 5 10 8
-3 -3 -4 -5 -5 -3 -2 -2 -2 -1 0 0 1 1 3 4 6 6 6 5 5 3 1 2 4 4 3 4 3 3 2 1 2 -0 -1 2 6 3 -0 1 1 1 1 3 3 5 8
-4 -4 -4 -4 -3 -3 -2 -2 -1 -0 0 1 2 2 3 4 5 5 5 5 4 5 3 6 5 4 3 4 3 2 3 3 0 0 2 3 7 7 2 -1 -3 -1 2 5 8 8 8
-3 -4 -4 -4 -3 -2 -2 -1 -0 1 2 3 2 2 3 4 5 4 3 3 4 5 5 6 7 6 4 4 6 2 2 3 1 2 4 1 7 9 8 5 -1 -2 -2 1 5 6 7
-3 -4 -3 -3 -2 -1 -1 0 1 2 1 3 2 3 3 5 4 3 4 3 2 3 3 3 5 5 6 6 6 6 5 2 -0 0 -2 -2 3 6 6 3 0 0 -2 -3 5 6 4
-3 -3 -3 -4 -2 -1 -0 0 1 -0 -0 1 1 1 2 4 4 3 4 3 3 3 2 3 4 5 5 5 5 6 4 1 -0 -0 -2 1 5 5 4 2 0 -1 -2 -1 2 2 2
-3 -3 -4 -3 -1 -1 -0 0 1 1 -1 1 -1 1 2 3 2 3 4 4 4 3 2 3 5 5 4 4 3 5 4 3 4 -1 1 1 5 4 4 -1 -4 -4 -6 -5 -4 -3 -1
-3 -3 -4 -2 -1 -1 -0 0 0 1 0 2 1 1 2 3 3 4 3 4 3 2 2 2 4 5 4 4 2 2 2 2 2 3 4 2 3 3 3 0 -3 -2 -4 -7 -8 -9 -9
-3 -2 -4 -2 -1 -1 -1 -0 2 5 2 1 1 1 3 4 3 4 3 2 4 2 3 3 3 2 3 2 2 1 1 2 2 2 1 2 2 -0 -1 -4 -0 -7 -12 -10 -8 -8 -9
-3 -2 -4 -2 -1 -1 -1 -0 1 2 2 1 2 1 3 3 2 3 3 3 2 2 2 2 2 1 2 1 2 2 2 2 3 2 0 -0 -1 0 1 -2 -5 -10 -11 -11 -10 -9 -13
-3 -3 -3 -2 -0 -1 -1 -1 -0 0 1 2 2 2 2 2 3 3 3 2 2 1 2 1 2 1 0 0 1 2 1 1 2 1 -3 -4 -2 0 -0 -1 -2 -9 -13 -13 -12 -6 -13
-2 -3 -3 -2 -0 -0 -0 -0 -0 0 0 1 2 1 0 2 2 1 2 2 1 1 1 1 0 1 -1 2 3 2 0 -4 0 0 -1 -1 0 2 1 -1 -6 -11 -15 -11 -5 -6 -12
-2 -3 -4 -2 -2 -1 -0 -0 -0 -0 0 1 1 1 -0 0 1 1 1 1 1 -0 1 1 1 1 0 2 2 2 -0 -2 -2 -4 -2 -1 1 1 1 1 0 -11 -12 -8 -9 -11 -13
-2 -3 -3 -3 -4 -2 -1 -0 -0 0 0 1 0 1 -0 -0 1 1 1 0 -1 -2 0 -0 -1 -1 0 1 2 2 0 -0 -3 -1 -4 -1 -2 -1 -1 -1 -7 -10 -11 -12 -12 -13 -13

GFSGBSN_850_dewp_195.txt.gz
Dewpoint
-0 -1 1 1 0 -4 -3 -1 8 9 9 10 10 10 1 1 -6 -7 -3 1 2 2 2 -0 -2 -1 1 2 -3 -0 -1 1 3 2 1 2 2 1 2 1 2 2 1 1 1 0 -0
-1 -0 -0 1 1 0 1 2 4 7 8 9 10 10 9 -0 1 -6 -6 -2 1 2 1 -1 -1 1 2 6 -4 -0 4 4 4 2 2 3 3 3 3 2 3 2 2 2 1 1 1
0 0 0 0 0 2 4 5 5 6 7 8 9 9 10 9 0 0 -6 -4 -0 1 -0 -2 -0 3 5 1 -2 4 5 5 5 4 4 4 4 3 3 4 3 2 3 2 2 1 1
-1 0 0 -1 -0 0 2 4 4 5 6 7 8 7 8 10 7 2 -3 -4 -1 -0 -1 -1 2 5 6 1 -2 2 4 5 5 4 4 4 3 3 3 3 3 3 3 5 2 1 0
-2 -2 -0 1 -0 0 0 1 2 4 6 6 7 7 7 8 10 3 2 -4 -1 0 -0 1 4 6 7 2 2 -6 -3 3 4 5 4 4 4 3 3 4 4 3 5 3 2 -1 -1
-2 -2 -1 -0 -0 -1 -1 -1 0 2 3 6 6 7 7 7 9 8 4 -2 1 2 5 6 6 7 5 4 1 -1 -4 1 5 5 4 4 3 3 4 4 7 4 4 2 2 -1 -3
-2 -1 -1 -1 -1 0 -0 0 -3 -2 1 3 5 5 7 7 7 9 6 4 6 7 6 5 5 4 -1 -2 1 2 4 4 5 4 5 3 5 6 4 4 3 3 2 2 0 -2 -2
-1 -1 -1 -1 -2 0 1 1 1 1 2 1 4 6 6 6 7 8 7 3 4 2 5 5 5 5 1 -0 4 3 3 4 4 6 3 5 6 3 2 2 3 3 3 2 1 -1 -1
-2 -2 -1 -1 -1 -1 -0 -0 -0 0 1 2 3 5 5 5 5 7 7 4 2 4 6 5 4 3 5 2 4 3 2 3 4 5 5 7 5 3 3 3 3 2 3 2 2 -1 -1
-3 -4 -2 -1 -2 -1 -1 -1 -1 -5 -2 -1 2 3 5 4 6 7 7 5 3 1 7 4 6 5 4 3 3 4 2 2 4 4 6 6 3 4 4 4 3 3 0 0 0 1 4
-2 -4 -5 -3 -2 -2 -3 -2 -3 -4 -6 -3 -0 3 5 6 6 6 6 7 4 5 6 1 2 2 2 3 0 2 1 4 5 5 6 7 4 4 4 4 3 3 1 1 1 2 2
-3 -2 -2 -2 -3 -4 -3 -4 -4 -3 -4 -6 -2 3 4 6 5 4 7 6 5 7 7 3 0 4 5 3 2 2 2 3 4 4 3 4 1 1 2 0 -0 -1 1 1 1 1 4
-4 -4 -6 -5 -4 -5 -5 -5 -5 -3 -3 -3 -3 -1 3 4 5 6 6 7 6 7 4 2 4 4 5 4 2 4 3 4 5 7 6 3 3 0 0 2 2 -1 1 8 5 6 5
-3 -3 -3 -3 -3 -3 -4 -4 -4 -3 -3 -3 -2 -2 1 3 5 6 6 7 7 6 6 0 4 3 6 5 4 3 5 5 3 3 5 6 7 3 -0 1 3 -1 1 6 8 8 6
-4 -4 -3 -4 -7 -6 -6 -6 -5 -4 -3 -2 -1 -1 0 2 4 6 7 7 6 5 3 2 4 6 5 4 6 6 6 5 4 3 5 6 6 2 1 -1 -0 -0 2 -0 5 5 6
-4 -3 -3 -4 -4 -5 -5 -5 -4 -3 -2 -2 -1 -0 -0 -1 3 5 6 6 5 4 2 1 7 5 7 5 6 8 7 5 4 2 2 3 6 2 1 1 -2 -2 -0 4 7 9 8
-4 -3 -3 -4 -5 -5 -5 -4 -3 -2 -1 -1 -0 1 0 -3 2 4 6 5 4 3 2 2 3 5 5 6 5 8 7 4 4 3 2 2 7 5 0 2 1 -0 1 3 4 6 6
-3 -3 -3 -3 -4 -4 -4 -3 -3 -3 -1 -1 -0 -0 -1 -1 2 2 4 2 3 4 3 3 4 3 4 4 6 6 6 4 2 1 4 2 6 7 3 3 1 -1 1 5 7 4 4
-3 -3 -3 -2 -3 -3 -3 -3 -3 -1 -1 -1 -0 -0 -0 1 3 3 2 4 4 4 3 6 6 5 2 5 6 5 4 3 1 2 3 3 8 9 7 5 3 0 3 5 4 5 4
-3 -2 -2 -3 -3 -4 -4 -2 -1 -1 -1 -1 0 1 1 1 3 3 3 3 4 3 3 4 6 6 5 6 7 8 5 4 1 2 2 2 7 6 7 5 3 1 2 4 4 6 4
-3 -3 -3 -3 -4 -6 -4 -1 -1 -1 0 -1 1 1 0 3 1 4 3 3 3 4 4 3 5 6 6 6 6 7 5 3 1 -0 0 3 5 6 5 4 2 1 -0 2 4 2 4
-3 -3 -3 -3 -4 -4 -4 -0 -1 -1 -1 0 -0 0 1 -1 2 2 4 3 4 3 4 5 6 6 6 6 6 6 5 3 3 0 2 2 5 4 4 5 5 6 1 2 2 1 1
-2 -3 -3 -3 -4 -2 -1 -1 -1 -1 -1 -0 -0 0 1 0 3 4 3 3 4 3 2 3 4 5 6 5 3 3 2 2 1 2 3 3 3 4 4 5 4 3 3 2 2 0 -0
-3 -3 -4 -4 -4 -1 -0 -1 -1 -0 -1 -0 -0 0 3 3 2 3 3 2 3 3 2 2 3 4 3 2 2 2 2 2 2 3 1 3 3 3 3 3 3 0 -2 -2 -4 -6 -8
-3 -3 -4 -5 -3 -1 -1 -1 -0 -0 0 1 1 0 2 3 2 2 3 3 2 2 3 3 3 3 3 1 2 2 2 3 2 2 3 1 2 3 3 3 -2 -5 -7 -5 -4 -5 -7
-2 -3 -4 -5 -3 -1 -1 -1 -0 0 1 3 2 0 1 2 3 2 3 2 3 2 1 2 3 3 2 1 2 2 2 3 3 4 2 2 0 2 3 3 2 -2 -9 -12 -9 -3 -9
-3 -3 -5 -3 -3 -1 -1 -0 0 0 2 2 2 1 1 2 2 3 3 3 2 1 2 2 1 0 1 2 2 3 2 2 3 3 3 3 2 2 3 3 -2 -9 -9 -12 -5 -4 -10
-3 -4 -5 -3 -3 -1 -0 -0 0 1 2 3 2 2 0 2 3 2 2 1 0 0 2 0 1 1 2 2 3 3 2 2 2 1 2 2 2 2 3 3 1 -9 -9 -6 -5 -10 -12
-3 -5 -4 -4 -3 -1 -0 -0 -0 0 1 2 1 0 -0 1 2 2 1 1 -0 -1 -0 0 0 1 1 2 2 2 1 2 1 2 -1 2 1 1 0 0 -4 -10 -7 -12 -12 -13 -13

GFSGBSN_850_dewp_201.txt.gz
Dewpoint
0 -0 -1 -0 -2 -5 -8 -11 -10 -11 -11 -7 -6 -1 8 9 9 10 9 2 -0 -7 -3 2 4 4 3 2 -0 -0 1 -0 0 2 -1 1 4 2 2 1 2 2 2 2 2 2 2
-1 -0 -0 -1 -1 -2 -3 -8 -9 -7 -9 -7 0 -1 -2 7 8 9 10 10 1 -2 -6 2 4 4 3 6 -1 -3 -3 -3 -3 2 2 3 3 3 3 3 3 2 3 3 2 2 2
-1 -1 -1 -1 -3 -3 -2 -3 -5 -4 -3 -3 -3 -1 0 -4 5 8 9 10 8 1 -4 1 5 4 3 2 -2 -2 -3 -4 1 2 3 2 3 4 4 4 3 3 4 3 3 2 2
-1 -1 -1 -1 -4 -3 -3 -3 -2 -3 -4 -2 -2 -1 1 2 3 7 8 9 10 5 -1 1 5 4 6 2 -1 -2 2 -0 3 4 4 4 4 4 3 4 3 3 3 6 3 2 2
-2 -2 -2 -3 -2 -2 -4 -4 -3 -3 -3 -4 -4 -2 -0 2 4 6 8 8 9 7 2 3 5 5 5 1 -2 -4 -3 -1 4 5 5 5 4 4 3 4 6 4 7 5 3 -0 0
-2 -1 -2 -2 -2 -3 -4 -3 -3 -2 -2 -3 -6 -5 -3 2 3 6 7 7 8 8 4 6 6 6 2 4 -1 -4 -4 -3 -1 5 5 5 5 4 4 5 8 7 6 4 3 0 0
-3 -2 -2 -2 -3 -1 -1 -1 -2 -2 -1 -1 -3 -4 -3 -1 1 5 6 6 7 7 6 5 4 2 1 0 2 0 -2 -4 -1 1 6 5 6 7 6 5 4 4 4 4 2 0 1
-3 -2 -2 -1 -1 -1 -1 -1 -2 -2 -1 -1 -2 -2 -3 -3 1 3 6 6 6 4 6 5 4 4 -1 2 3 3 2 2 3 4 4 6 8 5 4 4 5 5 5 5 3 2 2
-4 -3 -2 -2 -1 -2 -3 -3 -2 -2 -1 -1 -2 -3 -5 -3 -0 3 5 6 7 6 5 4 4 5 5 2 3 2 3 2 1 3 5 6 4 4 5 5 6 5 6 5 5 2 1
-3 -3 -3 -2 -2 -2 -2 -3 -3 -3 -2 -2 -1 -5 -8 -8 -1 0 3 5 6 6 4 5 6 5 5 5 4 1 4 3 4 3 2 5 2 5 5 6 5 7 4 4 4 4 5
-4 -4 -3 -3 -4 -3 -4 -5 -5 -4 -4 -4 -2 -2 -7 -5 1 3 -1 3 6 6 6 3 4 4 3 4 1 1 -1 4 5 5 6 5 6 6 6 5 4 5 3 4 4 4 2
-4 -4 -4 -4 -4 -4 -3 -5 -6 -6 -7 -4 -6 -4 -3 -5 -2 1 4 4 6 6 6 5 4 5 4 3 0 1 2 4 4 5 4 1 3 4 3 4 4 3 3 3 2 3 6
-5 -5 -5 -4 -4 -4 -4 -5 -4 -4 -6 -6 -6 -6 -4 -3 -2 -1 3 4 6 6 4 5 6 4 3 4 2 -1 3 5 6 7 8 6 4 4 3 4 4 4 4 8 8 7 8
-6 -5 -4 -4 -4 -5 -5 -4 -4 -4 -4 -4 -5 -5 -5 -3 -4 -3 -0 3 5 4 5 2 2 5 4 3 3 1 1 4 4 3 4 8 9 5 4 5 6 5 4 8 11 9 8
-5 -4 -6 -6 -6 -5 -5 -5 -5 -5 -7 -8 -7 -5 -4 -6 -5 -3 -0 1 5 5 3 3 1 6 5 2 3 2 1 1 4 3 3 6 5 3 3 2 3 5 6 3 7 8 9
-4 -4 -5 -5 -5 -4 -5 -4 -5 -5 -5 -5 -4 -2 -1 -5 -5 -1 0 1 3 3 2 1 4 6 6 4 4 3 2 -1 1 2 1 4 7 3 4 3 3 3 2 6 8 11 11
-6 -6 -5 -5 -5 -4 -4 -5 -6 -5 -5 -6 -2 -1 -3 -4 -2 -1 -0 1 2 1 0 3 5 6 5 4 3 4 2 0 -1 2 2 3 5 4 5 5 6 4 4 4 6 7 7
-5 -4 -4 -4 -4 -4 -3 -4 -4 -4 -3 -3 -1 -2 -3 -2 -0 -1 -1 1 -0 1 2 4 3 4 4 4 4 3 2 1 -0 0 5 3 6 6 5 2 2 4 5 4 7 5 6
-4 -4 -3 -3 -3 -4 -4 -3 -4 -4 -4 -1 -1 -1 -2 -2 -0 -2 -3 -2 0 1 3 5 5 2 5 4 5 4 2 0 3 1 4 4 6 8 7 5 3 3 4 4 4 5 7
-3 -2 -2 -2 -2 -3 -3 -3 -3 -4 -3 -1 -1 -1 -1 -0 -0 -2 -3 -2 -1 -1 -0 -0 4 4 6 6 6 6 6 4 2 2 2 3 5 4 6 4 5 4 3 3 5 7 6
-2 -2 -2 -2 -2 -2 -3 -3 -4 -3 -3 -1 -1 -1 -3 -1 -2 -2 -1 -2 -1 1 2 2 2 3 4 7 7 8 7 3 1 1 4 4 7 5 4 4 3 4 4 4 4 4 6
-3 -3 -3 -3 -3 -3 -3 -3 -3 -3 -2 -1 -1 -1 -1 -2 -3 -2 -2 -2 1 -2 -0 2 5 4 5 4 5 7 6 4 4 2 5 6 8 6 6 6 5 4 4 3 3 3 3
-2 -3 -3 -3 -3 -4 -3 -3 -3 -3 -2 -1 -1 -1 -0 -1 -2 -1 -2 -3 -3 -0 -1 -3 1 4 5 4 2 3 4 3 3 3 5 6 8 8 9 7 6 7 5 3 2 2 2
-3 -3 -3 -4 -4 -3 -3 -3 -3 -3 -2 -1 -1 -1 -1 -1 -0 -2 -3 -3 -3 -2 1 2 2 4 3 2 2 3 2 4 4 4 3 5 8 6 5 6 8 6 4 2 1 1 1
-3 -3 -4 -3 -2 -2 -3 -4 -3 -2 -1 -1 -1 -1 -1 -0 -2 -2 -2 -3 -3 -3 -1 1 2 4 3 2 3 4 3 4 2 2 5 4 5 4 5 6 4 0 -1 4 3 3 0
-3 -3 -2 -2 -3 -4 -3 -4 -3 -1 -1 -1 -1 -1 -1 -0 -1 -2 -2 -2 -1 -1 -1 1 2 3 4 3 3 4 4 6 4 3 2 4 4 5 4 5 6 0 -3 0 -1 5 1
-2 -2 -3 -4 -4 -2 -1 -1 -1 -1 -0 -0 -0 -0 -1 -1 -1 -3 -0 -0 -2 -2 -0 0 3 4 4 4 4 4 4 3 4 4 4 3 4 5 4 5 4 -0 -3 -1 4 2 -0
-3 -4 -3 -2 -1 -1 -1 -1 -1 -1 -0 -0 -0 0 -1 -1 -0 -2 -3 -1 -1 -1 1 2 2 1 1 4 5 2 3 3 3 2 3 4 4 4 3 4 5 -2 -2 1 -1 -7 -8
-4 -2 -2 -2 -2 -1 -1 -1 -0 -1 -0 0 1 0 -0 -1 0 -2 -2 -2 -1 -1 -1 2 2 2 2 2 2 2 2 2 2 4 0 2 2 3 3 3 -1 -3 -5 -6 -10 -10 -10